Tracking 19576 objects as of 16-Feb-2019
HD Live streaming from Space Station
objects crossing your sky now

COSMOS 2142

Track COSMOS 2142 now!
10-day predictions
COSMOS 2142 is classified as:


NORAD ID: 21230
Int'l Code: 1991-029A
Perigee: 966.4 km
Apogee: 1,024.6 km
Inclination: 83.0 °
Period: 104.9 minutes
Semi major axis: 7366 km
RCS: 2.0441 m2 (large)
Launch date: April 16, 1991
Source: Commonwealth of Independent States (former USSR) (CIS)
Launch site: PLESETSK MISSILE AND SPACE COMPLEX (PKMTR)
aabbcc
Your satellite tracking list
Your tracking list is empty




NASA's NSSDC Master Catalog

Two Line Element Set (TLE):
1 21230U 91029A   19047.17628517  .00000011  00000-0 -49915-5 0  9993
2 21230  82.9531  53.0184 0039449  98.3087 309.8433 13.73129155395052
Source of the keplerian elements: AFSPC